Year,Month,Day,Hour,Minute,Value (Times are PST for temperature in C)
2015,02,28,00,00,6.60
2015,02,28,00,01,6.60
2015,02,28,00,02,6.60
2015,02,28,00,03,6.60
2015,02,28,00,04,6.60
2015,02,28,00,05,6.60
2015,02,28,00,06,6.60
2015,02,28,00,07,6.60
2015,02,28,00,08,6.60
2015,02,28,00,09,6.60
2015,02,28,00,10,6.60
2015,02,28,00,11,6.60
2015,02,28,00,12,6.60
2015,02,28,00,13,6.60
2015,02,28,00,14,6.60
2015,02,28,00,15,6.60
2015,02,28,00,16,6.60
2015,02,28,00,17,6.60
2015,02,28,00,18,6.60
2015,02,28,00,19,6.60
2015,02,28,00,20,6.60
2015,02,28,00,21,6.60
2015,02,28,00,22,6.50
2015,02,28,00,23,6.40
2015,02,28,00,24,6.40
2015,02,28,00,25,6.40
2015,02,28,00,26,6.30
2015,02,28,00,27,6.20
2015,02,28,00,28,6.20
2015,02,28,00,29,6.20
2015,02,28,00,30,6.20
2015,02,28,00,31,6.10
2015,02,28,00,32,6.10
2015,02,28,00,33,6.10
2015,02,28,00,34,6.00
2015,02,28,00,35,6.00
2015,02,28,00,36,5.90
2015,02,28,00,37,5.90
2015,02,28,00,38,5.80
2015,02,28,00,39,5.80
2015,02,28,00,40,5.70
2015,02,28,00,41,5.70
2015,02,28,00,42,5.70
2015,02,28,00,43,5.60
2015,02,28,00,44,5.60
2015,02,28,00,45,5.50
2015,02,28,00,46,5.50
2015,02,28,00,47,5.50
2015,02,28,00,48,5.40
2015,02,28,00,49,5.40
2015,02,28,00,50,5.30
2015,02,28,00,51,5.30
2015,02,28,00,52,5.30
2015,02,28,00,53,5.30
2015,02,28,00,54,5.20
2015,02,28,00,55,5.10
2015,02,28,00,56,5.10
2015,02,28,00,57,5.00
2015,02,28,00,58,4.90
2015,02,28,00,59,4.90
2015,02,28,01,00,5.00
2015,02,28,01,01,5.10
2015,02,28,01,02,5.10
2015,02,28,01,03,5.00
2015,02,28,01,04,4.90
2015,02,28,01,05,4.90
2015,02,28,01,06,4.80
2015,02,28,01,07,4.80
2015,02,28,01,08,4.70
2015,02,28,01,09,4.70
2015,02,28,01,10,4.60
2015,02,28,01,11,4.60
2015,02,28,01,12,4.50
2015,02,28,01,13,4.50
2015,02,28,01,14,4.50
2015,02,28,01,15,4.40
2015,02,28,01,16,4.40
2015,02,28,01,17,4.40
2015,02,28,01,18,4.40
2015,02,28,01,19,4.40
2015,02,28,01,20,4.40
2015,02,28,01,21,4.40
2015,02,28,01,22,4.50
2015,02,28,01,23,4.50
2015,02,28,01,24,4.50
2015,02,28,01,25,4.60
2015,02,28,01,26,4.60
2015,02,28,01,27,4.70
2015,02,28,01,28,4.70
2015,02,28,01,29,4.80
2015,02,28,01,30,4.90
2015,02,28,01,31,5.00
2015,02,28,01,32,5.10
2015,02,28,01,33,5.30
2015,02,28,01,34,5.50
2015,02,28,01,35,5.60
2015,02,28,01,36,5.70
2015,02,28,01,37,5.80
2015,02,28,01,38,6.00
2015,02,28,01,39,6.10
2015,02,28,01,40,6.20
2015,02,28,01,41,6.20
2015,02,28,01,42,6.20
2015,02,28,01,43,6.30
2015,02,28,01,44,6.40
2015,02,28,01,45,6.40
2015,02,28,01,46,6.50
2015,02,28,01,47,6.60
2015,02,28,01,48,6.60
2015,02,28,01,49,6.60
2015,02,28,01,50,6.60
2015,02,28,01,51,6.70
2015,02,28,01,52,6.70
2015,02,28,01,53,6.80
2015,02,28,01,54,6.80
2015,02,28,01,55,6.80
2015,02,28,01,56,6.80
2015,02,28,01,57,6.80
2015,02,28,01,58,6.80
2015,02,28,01,59,6.80
2015,02,28,02,00,6.80
2015,02,28,02,01,6.70
2015,02,28,02,02,6.70
2015,02,28,02,03,6.80
2015,02,28,02,04,6.80
2015,02,28,02,05,6.80
2015,02,28,02,06,6.80
2015,02,28,02,07,6.80
2015,02,28,02,08,6.80
2015,02,28,02,09,6.80
2015,02,28,02,10,6.80
2015,02,28,02,11,6.80
2015,02,28,02,12,6.80
2015,02,28,02,13,6.80
2015,02,28,02,14,6.80
2015,02,28,02,15,6.80
2015,02,28,02,16,6.80
2015,02,28,02,17,6.80
2015,02,28,02,18,6.80
2015,02,28,02,19,6.80
2015,02,28,02,20,6.80
2015,02,28,02,21,6.80
2015,02,28,02,22,6.80
2015,02,28,02,23,6.80
2015,02,28,02,24,6.80
2015,02,28,02,25,6.80
2015,02,28,02,26,6.70
2015,02,28,02,27,6.70
2015,02,28,02,28,6.70
2015,02,28,02,29,6.70
2015,02,28,02,30,6.60
2015,02,28,02,31,6.60
2015,02,28,02,32,6.60
2015,02,28,02,33,6.40
2015,02,28,02,34,6.40
2015,02,28,02,35,6.40
2015,02,28,02,36,6.30
2015,02,28,02,37,6.20
2015,02,28,02,38,6.20
2015,02,28,02,39,6.20
2015,02,28,02,40,6.10
2015,02,28,02,41,6.10
2015,02,28,02,42,6.00
2015,02,28,02,43,6.00
2015,02,28,02,44,5.90
2015,02,28,02,45,5.90
2015,02,28,02,46,5.80
2015,02,28,02,47,5.80
2015,02,28,02,48,5.70
2015,02,28,02,49,5.70
2015,02,28,02,50,5.70
2015,02,28,02,51,5.70
2015,02,28,02,52,5.70
2015,02,28,02,53,5.60
2015,02,28,02,54,5.60
2015,02,28,02,55,5.50
2015,02,28,02,56,5.50
2015,02,28,02,57,5.50
2015,02,28,02,58,5.60
2015,02,28,02,59,5.60
2015,02,28,03,00,5.60
2015,02,28,03,01,5.70
2015,02,28,03,02,5.70
2015,02,28,03,03,5.80
2015,02,28,03,04,5.90
2015,02,28,03,05,6.00
2015,02,28,03,06,6.10
2015,02,28,03,07,6.10
2015,02,28,03,08,6.10
2015,02,28,03,09,6.20
2015,02,28,03,10,6.20
2015,02,28,03,11,6.20
2015,02,28,03,12,6.20
2015,02,28,03,13,6.30
2015,02,28,03,14,6.30
2015,02,28,03,15,6.30
2015,02,28,03,16,6.30
2015,02,28,03,17,6.40
2015,02,28,03,18,6.40
2015,02,28,03,19,6.40
2015,02,28,03,20,6.40
2015,02,28,03,21,6.40
2015,02,28,03,22,6.40
2015,02,28,03,23,6.40
2015,02,28,03,24,6.40
2015,02,28,03,25,6.40
2015,02,28,03,26,6.30
2015,02,28,03,27,6.30
2015,02,28,03,28,6.40
2015,02,28,03,29,6.40
2015,02,28,03,30,6.40
2015,02,28,03,31,6.30
2015,02,28,03,32,6.30
2015,02,28,03,33,6.40
2015,02,28,03,34,6.40
2015,02,28,03,35,6.40
2015,02,28,03,36,6.60
2015,02,28,03,37,6.60
2015,02,28,03,38,6.60
2015,02,28,03,39,6.60
2015,02,28,03,40,6.60
2015,02,28,03,41,6.60
2015,02,28,03,42,6.60
2015,02,28,03,43,6.60
2015,02,28,03,44,6.60
2015,02,28,03,45,6.60
2015,02,28,03,46,6.60
2015,02,28,03,47,6.60
2015,02,28,03,48,6.60
2015,02,28,03,49,6.60
2015,02,28,03,50,6.60
2015,02,28,03,51,6.60
2015,02,28,03,52,6.60
2015,02,28,03,53,6.60
2015,02,28,03,54,6.60
2015,02,28,03,55,6.60
2015,02,28,03,56,6.60
2015,02,28,03,57,6.60
2015,02,28,03,58,6.60
2015,02,28,03,59,6.60
2015,02,28,04,00,6.60
2015,02,28,04,01,6.60
2015,02,28,04,02,6.50
2015,02,28,04,03,6.40
2015,02,28,04,04,6.40
2015,02,28,04,05,6.40
2015,02,28,04,06,6.40
2015,02,28,04,07,6.40
2015,02,28,04,08,6.40
2015,02,28,04,09,6.40
2015,02,28,04,10,6.40
2015,02,28,04,11,6.40
2015,02,28,04,12,6.40
2015,02,28,04,13,6.40
2015,02,28,04,14,6.30
2015,02,28,04,15,6.30
2015,02,28,04,16,6.30
2015,02,28,04,17,6.30
2015,02,28,04,18,6.30
2015,02,28,04,19,6.30
2015,02,28,04,20,6.30
2015,02,28,04,21,6.20
2015,02,28,04,22,6.20
2015,02,28,04,23,6.20
2015,02,28,04,24,6.20
2015,02,28,04,25,6.20
2015,02,28,04,26,6.20
2015,02,28,04,27,6.10
2015,02,28,04,28,6.10
2015,02,28,04,29,6.10
2015,02,28,04,30,6.10
2015,02,28,04,31,6.10
2015,02,28,04,32,6.10
2015,02,28,04,33,6.10
2015,02,28,04,34,6.10
2015,02,28,04,35,6.10
2015,02,28,04,36,6.10
2015,02,28,04,37,6.10
2015,02,28,04,38,6.00
2015,02,28,04,39,6.00
2015,02,28,04,40,6.00
2015,02,28,04,41,5.90
2015,02,28,04,42,5.90
2015,02,28,04,43,5.90
2015,02,28,04,44,5.90
2015,02,28,04,45,5.80
2015,02,28,04,46,5.80
2015,02,28,04,47,5.80
2015,02,28,04,48,5.70
2015,02,28,04,49,5.70
2015,02,28,04,50,5.70
2015,02,28,04,51,5.70
2015,02,28,04,52,5.70
2015,02,28,04,53,5.60
2015,02,28,04,54,5.60
2015,02,28,04,55,5.60
2015,02,28,04,56,5.60
2015,02,28,04,57,5.60
2015,02,28,04,58,5.50
2015,02,28,04,59,5.50
2015,02,28,05,00,5.50
2015,02,28,05,01,5.50
2015,02,28,05,02,5.40
2015,02,28,05,03,5.40
2015,02,28,05,04,5.40
2015,02,28,05,05,5.30
2015,02,28,05,06,5.30
2015,02,28,05,07,5.30
2015,02,28,05,08,5.30
2015,02,28,05,09,5.30
2015,02,28,05,10,5.20
2015,02,28,05,11,5.10
2015,02,28,05,12,5.10
2015,02,28,05,13,5.10
2015,02,28,05,14,5.10
2015,02,28,05,15,5.10
2015,02,28,05,16,5.00
2015,02,28,05,17,4.90
2015,02,28,05,18,4.90
2015,02,28,05,19,4.80
2015,02,28,05,20,4.80
2015,02,28,05,21,4.70
2015,02,28,05,22,4.60
2015,02,28,05,23,4.60
2015,02,28,05,24,4.60
2015,02,28,05,25,4.60
2015,02,28,05,26,4.60
2015,02,28,05,27,4.70
2015,02,28,05,28,4.80
2015,02,28,05,29,4.90
2015,02,28,05,30,5.10
2015,02,28,05,31,5.10
2015,02,28,05,32,5.20
2015,02,28,05,33,5.30
2015,02,28,05,34,5.30
2015,02,28,05,35,5.30
2015,02,28,05,36,5.30
2015,02,28,05,37,5.30
2015,02,28,05,38,5.40
2015,02,28,05,39,5.50
2015,02,28,05,40,5.50
2015,02,28,05,41,5.60
2015,02,28,05,42,5.70
2015,02,28,05,43,5.70
2015,02,28,05,44,5.70
2015,02,28,05,45,5.80
2015,02,28,05,46,5.80
2015,02,28,05,47,5.80
2015,02,28,05,48,5.90
2015,02,28,05,49,5.90
2015,02,28,05,50,5.90
2015,02,28,05,51,5.90
2015,02,28,05,52,5.90
2015,02,28,05,53,5.90
2015,02,28,05,54,5.80
2015,02,28,05,55,5.80
2015,02,28,05,56,5.80
2015,02,28,05,57,5.80
2015,02,28,05,58,5.80
2015,02,28,05,59,5.70
2015,02,28,06,00,5.70
2015,02,28,06,01,5.70
2015,02,28,06,02,5.70
2015,02,28,06,03,5.70
2015,02,28,06,04,5.70
2015,02,28,06,05,5.70
2015,02,28,06,06,5.70
2015,02,28,06,07,5.70
2015,02,28,06,08,5.70
2015,02,28,06,09,5.70
2015,02,28,06,10,5.70
2015,02,28,06,11,5.70
2015,02,28,06,12,5.60
2015,02,28,06,13,5.60
2015,02,28,06,14,5.60
2015,02,28,06,15,5.60
2015,02,28,06,16,5.50
2015,02,28,06,17,5.50
2015,02,28,06,18,5.50
2015,02,28,06,19,5.40
2015,02,28,06,20,5.40
2015,02,28,06,21,5.30
2015,02,28,06,22,5.30
2015,02,28,06,23,5.30
2015,02,28,06,24,5.30
2015,02,28,06,25,5.20
2015,02,28,06,26,5.20
2015,02,28,06,27,5.20
2015,02,28,06,28,5.20
2015,02,28,06,29,5.20
2015,02,28,06,30,5.20
2015,02,28,06,31,5.20
2015,02,28,06,32,5.20
2015,02,28,06,33,5.30
2015,02,28,06,34,5.30
2015,02,28,06,35,5.30
2015,02,28,06,36,5.30
2015,02,28,06,37,5.30
2015,02,28,06,38,5.30
2015,02,28,06,39,5.40
2015,02,28,06,40,5.50
2015,02,28,06,41,5.50
2015,02,28,06,42,5.50
2015,02,28,06,43,5.50
2015,02,28,06,44,5.50
2015,02,28,06,45,5.50
2015,02,28,06,46,5.50
2015,02,28,06,47,5.50
2015,02,28,06,48,5.50
2015,02,28,06,49,5.60
2015,02,28,06,50,5.60
2015,02,28,06,51,5.60
2015,02,28,06,52,5.60
2015,02,28,06,53,5.60
2015,02,28,06,54,5.60
2015,02,28,06,55,5.60
2015,02,28,06,56,5.60
2015,02,28,06,57,5.50
2015,02,28,06,58,5.50
2015,02,28,06,59,5.50
2015,02,28,07,00,5.50
2015,02,28,07,01,5.50
2015,02,28,07,02,5.50
2015,02,28,07,03,5.50
2015,02,28,07,04,5.40
2015,02,28,07,05,5.50
2015,02,28,07,06,5.50
2015,02,28,07,07,5.50
2015,02,28,07,08,5.60
2015,02,28,07,09,5.60
2015,02,28,07,10,5.60
2015,02,28,07,11,5.60
2015,02,28,07,12,5.60
2015,02,28,07,13,5.60
2015,02,28,07,14,5.50
2015,02,28,07,15,5.50
2015,02,28,07,16,5.50
2015,02,28,07,17,5.40
2015,02,28,07,18,5.40
2015,02,28,07,19,5.30
2015,02,28,07,20,5.20
2015,02,28,07,21,5.10
2015,02,28,07,22,5.00
2015,02,28,07,23,4.90
2015,02,28,07,24,4.80
2015,02,28,07,25,4.70
2015,02,28,07,26,4.60
2015,02,28,07,27,4.50
2015,02,28,07,28,4.40
2015,02,28,07,29,4.40
2015,02,28,07,30,4.30
2015,02,28,07,31,4.20
2015,02,28,07,32,4.20
2015,02,28,07,33,4.10
2015,02,28,07,34,4.10
2015,02,28,07,35,4.00
2015,02,28,07,36,4.00
2015,02,28,07,37,3.90
2015,02,28,07,38,3.90
2015,02,28,07,39,3.80
2015,02,28,07,40,3.80
2015,02,28,07,41,3.80
2015,02,28,07,42,3.80
2015,02,28,07,43,3.70
2015,02,28,07,44,3.70
2015,02,28,07,45,3.70
2015,02,28,07,46,3.80
2015,02,28,07,47,3.80
2015,02,28,07,48,3.80
2015,02,28,07,49,3.80
2015,02,28,07,50,3.80
2015,02,28,07,51,3.80
2015,02,28,07,52,3.80
2015,02,28,07,53,3.80
2015,02,28,07,54,3.90
2015,02,28,07,55,4.00
2015,02,28,07,56,4.20
2015,02,28,07,57,4.50
2015,02,28,07,58,4.60
2015,02,28,07,59,4.80
2015,02,28,08,00,5.00
2015,02,28,08,01,5.10
2015,02,28,08,02,5.20
2015,02,28,08,03,5.30
2015,02,28,08,04,5.50
2015,02,28,08,05,5.50
2015,02,28,08,06,5.60
2015,02,28,08,07,5.70
2015,02,28,08,08,5.70
2015,02,28,08,09,5.80
2015,02,28,08,10,5.80
2015,02,28,08,11,5.80
2015,02,28,08,12,5.90
2015,02,28,08,13,5.90
2015,02,28,08,14,5.90
2015,02,28,08,15,5.90
2015,02,28,08,16,6.00
2015,02,28,08,17,6.00
2015,02,28,08,18,6.00
2015,02,28,08,19,6.00
2015,02,28,08,20,6.10
2015,02,28,08,21,6.10
2015,02,28,08,22,6.10
2015,02,28,08,23,6.20
2015,02,28,08,24,6.20
2015,02,28,08,25,6.20
2015,02,28,08,26,6.30
2015,02,28,08,27,6.30
2015,02,28,08,28,6.40
2015,02,28,08,29,6.40
2015,02,28,08,30,6.40
2015,02,28,08,31,6.40
2015,02,28,08,32,6.50
2015,02,28,08,33,6.60
2015,02,28,08,34,6.60
2015,02,28,08,35,6.60
2015,02,28,08,36,6.60
2015,02,28,08,37,6.70
2015,02,28,08,38,6.70
2015,02,28,08,39,6.70
2015,02,28,08,40,6.70
2015,02,28,08,41,6.70
2015,02,28,08,42,6.80
2015,02,28,08,43,6.80
2015,02,28,08,44,6.80
2015,02,28,08,45,6.80
2015,02,28,08,46,6.80
2015,02,28,08,47,6.90
2015,02,28,08,48,6.90
2015,02,28,08,49,6.90
2015,02,28,08,50,7.00
2015,02,28,08,51,7.00
2015,02,28,08,52,7.10
2015,02,28,08,53,7.10
2015,02,28,08,54,7.10
2015,02,28,08,55,7.20
2015,02,28,08,56,7.20
2015,02,28,08,57,7.20
2015,02,28,08,58,7.30
2015,02,28,08,59,7.30
2015,02,28,09,00,7.30
2015,02,28,09,01,7.30
2015,02,28,09,02,7.30
2015,02,28,09,03,7.30
2015,02,28,09,04,7.40
2015,02,28,09,05,7.40
2015,02,28,09,06,7.50
2015,02,28,09,07,7.50
2015,02,28,09,08,7.60
2015,02,28,09,09,7.60
2015,02,28,09,10,7.60
2015,02,28,09,11,7.70
2015,02,28,09,12,7.70
2015,02,28,09,13,7.70
2015,02,28,09,14,7.80
2015,02,28,09,15,7.80
2015,02,28,09,16,7.80
2015,02,28,09,17,7.80
2015,02,28,09,18,7.80
2015,02,28,09,19,7.80
2015,02,28,09,20,7.80
2015,02,28,09,21,7.80
2015,02,28,09,22,7.80
2015,02,28,09,23,7.80
2015,02,28,09,24,7.90
2015,02,28,09,25,7.90
2015,02,28,09,26,7.90
2015,02,28,09,27,7.90
2015,02,28,09,28,7.90
2015,02,28,09,29,8.00
2015,02,28,09,30,8.00
2015,02,28,09,31,8.00
2015,02,28,09,32,8.00
2015,02,28,09,33,8.10
2015,02,28,09,34,8.10
2015,02,28,09,35,8.20
2015,02,28,09,36,8.20
2015,02,28,09,37,8.20
2015,02,28,09,38,8.30
2015,02,28,09,39,8.30
2015,02,28,09,40,8.30
2015,02,28,09,41,8.40
2015,02,28,09,42,8.40
2015,02,28,09,43,8.40
2015,02,28,09,44,8.40
2015,02,28,09,45,8.40
2015,02,28,09,46,8.40
2015,02,28,09,47,8.40
2015,02,28,09,48,8.50
2015,02,28,09,49,8.50
2015,02,28,09,50,8.50
2015,02,28,09,51,8.50
2015,02,28,09,52,8.50
2015,02,28,09,53,8.50
2015,02,28,09,54,8.50
2015,02,28,09,55,8.60
2015,02,28,09,56,8.50
2015,02,28,09,57,8.50
2015,02,28,09,58,8.50
2015,02,28,09,59,8.60
2015,02,28,10,00,8.60
2015,02,28,10,01,8.60
2015,02,28,10,02,8.70
2015,02,28,10,03,8.70
2015,02,28,10,04,8.70
2015,02,28,10,05,8.70
2015,02,28,10,06,8.70
2015,02,28,10,07,8.70
2015,02,28,10,08,8.70
2015,02,28,10,09,8.70
2015,02,28,10,10,8.70
2015,02,28,10,11,8.70
2015,02,28,10,12,8.70
2015,02,28,10,13,8.70
2015,02,28,10,14,8.80
2015,02,28,10,15,8.80
2015,02,28,10,16,8.90
2015,02,28,10,17,8.90
2015,02,28,10,18,8.90
2015,02,28,10,19,8.90
2015,02,28,10,20,8.90
2015,02,28,10,21,8.90
2015,02,28,10,22,8.90
2015,02,28,10,23,8.90
2015,02,28,10,24,9.00
2015,02,28,10,25,9.10
2015,02,28,10,26,9.20
2015,02,28,10,27,9.20
2015,02,28,10,28,9.30
2015,02,28,10,29,9.30
2015,02,28,10,30,9.30
2015,02,28,10,31,9.40
2015,02,28,10,32,9.40
2015,02,28,10,33,9.50
2015,02,28,10,34,9.60
2015,02,28,10,35,9.60
2015,02,28,10,36,9.70
2015,02,28,10,37,9.70
2015,02,28,10,38,9.80
2015,02,28,10,39,9.90
2015,02,28,10,40,9.90
2015,02,28,10,41,10.00
2015,02,28,10,42,10.10
2015,02,28,10,43,10.10
2015,02,28,10,44,10.10
2015,02,28,10,45,10.10
2015,02,28,10,46,10.10
2015,02,28,10,47,10.10
2015,02,28,10,48,10.00
2015,02,28,10,49,10.00
2015,02,28,10,50,9.90
2015,02,28,10,51,10.00
2015,02,28,10,52,10.10
2015,02,28,10,53,10.10
2015,02,28,10,54,10.10
2015,02,28,10,55,10.10
2015,02,28,10,56,10.10
2015,02,28,10,57,10.10
2015,02,28,10,58,10.10
2015,02,28,10,59,10.20
2015,02,28,11,00,10.20
2015,02,28,11,01,10.30
2015,02,28,11,02,10.40
2015,02,28,11,03,10.60
2015,02,28,11,04,10.60
2015,02,28,11,05,10.60
2015,02,28,11,06,10.60
2015,02,28,11,07,10.60
2015,02,28,11,08,10.60
2015,02,28,11,09,10.60
2015,02,28,11,10,10.60
2015,02,28,11,11,10.60
2015,02,28,11,12,10.60
2015,02,28,11,13,10.70
2015,02,28,11,14,10.80
2015,02,28,11,15,10.80
2015,02,28,11,16,10.80
2015,02,28,11,17,10.80
2015,02,28,11,18,10.80
2015,02,28,11,19,10.70
2015,02,28,11,20,10.70
2015,02,28,11,21,10.70
2015,02,28,11,22,10.70
2015,02,28,11,23,10.60
2015,02,28,11,24,10.70
2015,02,28,11,25,10.70
2015,02,28,11,26,10.70
2015,02,28,11,27,10.80
2015,02,28,11,28,10.80
2015,02,28,11,29,10.70
2015,02,28,11,30,10.70
2015,02,28,11,31,10.80
2015,02,28,11,32,10.80
2015,02,28,11,33,10.80
2015,02,28,11,34,10.80
2015,02,28,11,35,10.80
2015,02,28,11,36,10.90
2015,02,28,11,37,10.90
2015,02,28,11,38,10.90
2015,02,28,11,39,10.90
2015,02,28,11,40,10.90
2015,02,28,11,41,10.90
2015,02,28,11,42,10.90
2015,02,28,11,43,10.90
2015,02,28,11,44,10.90
2015,02,28,11,45,10.90
2015,02,28,11,46,10.90
2015,02,28,11,47,10.80
2015,02,28,11,48,10.80
2015,02,28,11,49,10.80
2015,02,28,11,50,10.80
2015,02,28,11,51,10.80
2015,02,28,11,52,10.90
2015,02,28,11,53,10.90
2015,02,28,11,54,10.90
2015,02,28,11,55,10.80
2015,02,28,11,56,10.70
2015,02,28,11,57,10.70
2015,02,28,11,58,10.70
2015,02,28,11,59,10.70
2015,02,28,12,00,10.70
2015,02,28,12,01,10.70
2015,02,28,12,02,10.70
2015,02,28,12,03,10.70
2015,02,28,12,04,10.70
2015,02,28,12,05,10.60
2015,02,28,12,06,10.60
2015,02,28,12,07,10.60
2015,02,28,12,08,10.70
2015,02,28,12,09,10.80
2015,02,28,12,10,10.80
2015,02,28,12,11,10.90
2015,02,28,12,12,10.90
2015,02,28,12,13,10.90
2015,02,28,12,14,10.90
2015,02,28,12,15,10.90
2015,02,28,12,16,10.90
2015,02,28,12,17,10.90
2015,02,28,12,18,10.80
2015,02,28,12,19,10.80
2015,02,28,12,20,10.90
2015,02,28,12,21,10.90
2015,02,28,12,22,10.90
2015,02,28,12,23,10.90
2015,02,28,12,24,10.90
2015,02,28,12,25,10.90
2015,02,28,12,26,11.00
2015,02,28,12,27,11.10
2015,02,28,12,28,11.10
2015,02,28,12,29,11.10
2015,02,28,12,30,11.10
2015,02,28,12,31,11.00
2015,02,28,12,32,11.10
2015,02,28,12,33,11.10
2015,02,28,12,34,11.20
2015,02,28,12,35,11.30
2015,02,28,12,36,11.40
2015,02,28,12,37,11.40
2015,02,28,12,38,11.40
2015,02,28,12,39,11.40
2015,02,28,12,40,11.40
2015,02,28,12,41,11.40
2015,02,28,12,42,11.40
2015,02,28,12,43,11.40
2015,02,28,12,44,11.50
2015,02,28,12,45,11.60
2015,02,28,12,46,11.70
2015,02,28,12,47,11.70
2015,02,28,12,48,11.80
2015,02,28,12,49,11.80
2015,02,28,12,50,11.90
2015,02,28,12,51,11.90
2015,02,28,12,52,11.90
2015,02,28,12,53,11.90
2015,02,28,12,54,11.80
2015,02,28,12,55,11.80
2015,02,28,12,56,11.80
2015,02,28,12,57,11.80
2015,02,28,12,58,11.80
2015,02,28,12,59,11.80
2015,02,28,13,00,11.80
2015,02,28,13,01,11.80
2015,02,28,13,02,11.80
2015,02,28,13,03,11.70
2015,02,28,13,04,11.70
2015,02,28,13,05,11.60
2015,02,28,13,06,11.60
2015,02,28,13,07,11.60
2015,02,28,13,08,11.70
2015,02,28,13,09,11.70
2015,02,28,13,10,11.80
2015,02,28,13,11,11.80
2015,02,28,13,12,11.80
2015,02,28,13,13,11.80
2015,02,28,13,14,11.80
2015,02,28,13,15,11.80
2015,02,28,13,16,11.80
2015,02,28,13,17,11.80
2015,02,28,13,18,11.80
2015,02,28,13,19,11.70
2015,02,28,13,20,11.70
2015,02,28,13,21,11.60
2015,02,28,13,22,11.60
2015,02,28,13,23,11.70
2015,02,28,13,24,11.80
2015,02,28,13,25,11.80
2015,02,28,13,26,11.80
2015,02,28,13,27,11.80
2015,02,28,13,28,11.80
2015,02,28,13,29,11.90
2015,02,28,13,30,11.90
2015,02,28,13,31,12.00
2015,02,28,13,32,12.00
2015,02,28,13,33,12.10
2015,02,28,13,34,12.10
2015,02,28,13,35,12.10
2015,02,28,13,36,12.00
2015,02,28,13,37,12.00
2015,02,28,13,38,12.00
2015,02,28,13,39,12.10
2015,02,28,13,40,12.20
2015,02,28,13,41,12.20
2015,02,28,13,42,12.20
2015,02,28,13,43,12.20
2015,02,28,13,44,12.10
2015,02,28,13,45,12.10
2015,02,28,13,46,12.10
2015,02,28,13,47,12.20
2015,02,28,13,48,12.20
2015,02,28,13,49,12.30
2015,02,28,13,50,12.40
2015,02,28,13,51,12.50
2015,02,28,13,52,12.50
2015,02,28,13,53,12.60
2015,02,28,13,54,12.60
2015,02,28,13,55,12.70
2015,02,28,13,56,12.70
2015,02,28,13,57,12.70
2015,02,28,13,58,12.60
2015,02,28,13,59,12.60
2015,02,28,14,00,12.60
2015,02,28,14,01,12.60
2015,02,28,14,02,12.60
2015,02,28,14,03,12.60
2015,02,28,14,04,12.60
2015,02,28,14,05,12.50
2015,02,28,14,06,12.50
2015,02,28,14,07,12.40
2015,02,28,14,08,12.40
2015,02,28,14,09,12.40
2015,02,28,14,10,12.30
2015,02,28,14,11,12.30
2015,02,28,14,12,12.30
2015,02,28,14,13,12.30
2015,02,28,14,14,12.20
2015,02,28,14,15,12.10
2015,02,28,14,16,12.10
2015,02,28,14,17,12.10
2015,02,28,14,18,12.00
2015,02,28,14,19,12.00
2015,02,28,14,20,12.00
2015,02,28,14,21,12.00
2015,02,28,14,22,12.10
2015,02,28,14,23,12.10
2015,02,28,14,24,12.10
2015,02,28,14,25,12.00
2015,02,28,14,26,12.00
2015,02,28,14,27,12.00
2015,02,28,14,28,12.00
2015,02,28,14,29,12.00
2015,02,28,14,30,11.80
2015,02,28,14,31,11.80
2015,02,28,14,32,11.70
2015,02,28,14,33,11.60
2015,02,28,14,34,11.60
2015,02,28,14,35,11.60
2015,02,28,14,36,11.50
2015,02,28,14,37,11.50
2015,02,28,14,38,11.60
2015,02,28,14,39,11.60
2015,02,28,14,40,11.60
2015,02,28,14,41,11.60
2015,02,28,14,42,11.70
2015,02,28,14,43,11.80
2015,02,28,14,44,11.80
2015,02,28,14,45,12.00
2015,02,28,14,46,12.10
2015,02,28,14,47,12.30
2015,02,28,14,48,12.40
2015,02,28,14,49,12.50
2015,02,28,14,50,12.60
2015,02,28,14,51,12.70
2015,02,28,14,52,12.80
2015,02,28,14,53,12.80
2015,02,28,14,54,12.90
2015,02,28,14,55,12.90
2015,02,28,14,56,12.90
2015,02,28,14,57,12.90
2015,02,28,14,58,12.90
2015,02,28,14,59,13.00
2015,02,28,15,00,13.00
2015,02,28,15,01,13.00
2015,02,28,15,02,13.10
2015,02,28,15,03,13.20
2015,02,28,15,04,13.20
2015,02,28,15,05,13.20
2015,02,28,15,06,13.30
2015,02,28,15,07,13.30
2015,02,28,15,08,13.30
2015,02,28,15,09,13.30
2015,02,28,15,10,13.40
2015,02,28,15,11,13.40
2015,02,28,15,12,13.30
2015,02,28,15,13,13.20
2015,02,28,15,14,13.10
2015,02,28,15,15,13.10
2015,02,28,15,16,13.10
2015,02,28,15,17,13.10
2015,02,28,15,18,13.10
2015,02,28,15,19,13.10
2015,02,28,15,20,13.00
2015,02,28,15,21,12.90
2015,02,28,15,22,12.80
2015,02,28,15,23,12.70
2015,02,28,15,24,12.70
2015,02,28,15,25,12.70
2015,02,28,15,26,12.80
2015,02,28,15,27,12.80
2015,02,28,15,28,12.80
2015,02,28,15,29,12.80
2015,02,28,15,30,12.80
2015,02,28,15,31,12.80
2015,02,28,15,32,12.80
2015,02,28,15,33,12.80
2015,02,28,15,34,12.70
2015,02,28,15,35,12.70
2015,02,28,15,36,12.70
2015,02,28,15,37,12.70
2015,02,28,15,38,12.70
2015,02,28,15,39,12.60
2015,02,28,15,40,12.60
2015,02,28,15,41,12.60
2015,02,28,15,42,12.60
2015,02,28,15,43,12.60
2015,02,28,15,44,12.70
2015,02,28,15,45,12.70
2015,02,28,15,46,12.70
2015,02,28,15,47,12.80
2015,02,28,15,48,12.80
2015,02,28,15,49,12.80
2015,02,28,15,50,12.80
2015,02,28,15,51,12.80
2015,02,28,15,52,12.70
2015,02,28,15,53,12.70
2015,02,28,15,54,12.70
2015,02,28,15,55,12.70
2015,02,28,15,56,12.70
2015,02,28,15,57,12.70
2015,02,28,15,58,12.80
2015,02,28,15,59,12.90
2015,02,28,16,00,12.90
2015,02,28,16,01,12.80
2015,02,28,16,02,12.70
2015,02,28,16,03,12.60
2015,02,28,16,04,12.60
2015,02,28,16,05,12.50
2015,02,28,16,06,12.50
2015,02,28,16,07,12.50
2015,02,28,16,08,12.50
2015,02,28,16,09,12.60
2015,02,28,16,10,12.60
2015,02,28,16,11,12.60
2015,02,28,16,12,12.60
2015,02,28,16,13,12.60
2015,02,28,16,14,12.60
2015,02,28,16,15,12.60
2015,02,28,16,16,12.60
2015,02,28,16,17,12.70
2015,02,28,16,18,12.70
2015,02,28,16,19,12.70
2015,02,28,16,20,12.60
2015,02,28,16,21,12.60
2015,02,28,16,22,12.60
2015,02,28,16,23,12.60
2015,02,28,16,24,12.60
2015,02,28,16,25,12.60
2015,02,28,16,26,12.60
2015,02,28,16,27,12.60
2015,02,28,16,28,12.60
2015,02,28,16,29,12.60
2015,02,28,16,30,12.60
2015,02,28,16,31,12.60
2015,02,28,16,32,12.60
2015,02,28,16,33,12.60
2015,02,28,16,34,12.70
2015,02,28,16,35,12.60
2015,02,28,16,36,12.60
2015,02,28,16,37,12.50
2015,02,28,16,38,12.50
2015,02,28,16,39,12.50
2015,02,28,16,40,12.50
2015,02,28,16,41,12.50
2015,02,28,16,42,12.50
2015,02,28,16,43,12.50
2015,02,28,16,44,12.50
2015,02,28,16,45,12.40
2015,02,28,16,46,12.40
2015,02,28,16,47,12.40
2015,02,28,16,48,12.40
2015,02,28,16,49,12.40
2015,02,28,16,50,12.30
2015,02,28,16,51,12.30
2015,02,28,16,52,12.30
2015,02,28,16,53,12.30
2015,02,28,16,54,12.30
2015,02,28,16,55,12.30
2015,02,28,16,56,12.30
2015,02,28,16,57,12.30
2015,02,28,16,58,12.30
2015,02,28,16,59,12.20
2015,02,28,17,00,12.20
2015,02,28,17,01,12.20
2015,02,28,17,02,12.20
2015,02,28,17,03,12.20
2015,02,28,17,04,12.20
2015,02,28,17,05,12.10
2015,02,28,17,06,12.10
2015,02,28,17,07,12.10
2015,02,28,17,08,12.00
2015,02,28,17,09,12.00
2015,02,28,17,10,12.00
2015,02,28,17,11,11.90
2015,02,28,17,12,11.90
2015,02,28,17,13,11.80
2015,02,28,17,14,11.80
2015,02,28,17,15,11.70
2015,02,28,17,16,11.70
2015,02,28,17,17,11.60
2015,02,28,17,18,11.60
2015,02,28,17,19,11.60
2015,02,28,17,20,11.60
2015,02,28,17,21,11.40
2015,02,28,17,22,11.40
2015,02,28,17,23,11.40
2015,02,28,17,24,11.50
2015,02,28,17,25,11.60
2015,02,28,17,26,11.40
2015,02,28,17,27,11.40
2015,02,28,17,28,11.30
2015,02,28,17,29,11.20
2015,02,28,17,30,11.10
2015,02,28,17,31,11.00
2015,02,28,17,32,10.90
2015,02,28,17,33,10.80
2015,02,28,17,34,10.60
2015,02,28,17,35,10.50
2015,02,28,17,36,10.30
2015,02,28,17,37,10.20
2015,02,28,17,38,10.10
2015,02,28,17,39,10.00
2015,02,28,17,40,9.90
2015,02,28,17,41,9.80
2015,02,28,17,42,9.70
2015,02,28,17,43,9.70
2015,02,28,17,44,9.50
2015,02,28,17,45,9.40
2015,02,28,17,46,9.30
2015,02,28,17,47,9.20